[[{"header":{"parameterUnit":"m.s-1","parameterCategory":2,"la1":30.2991,"la2":30.254,"lo1":-89.0895,"lo2":-89.0444,"dy":0.0017,"dx":0.0017,"nx":28,"ny":28,"refTime":"2024-04-10T03:00:00:Z","depth":"0","parameterNumber":2,"parameterNumberName":"U-component_of_CURRENTS"},"data":[0,0,0,0,0,0,0,0,0,0,0,0,0,0,0,0,0,0,0,0,0,0,0,0,0,0,0,0,0,0,0,0,0,0,0,0,0,0,0,0,0,0,0,0,0,0,0,0,0,0,0,0,0,0,0,0,0,0,0.4298,0.4299,0,0.4359,0.4359,0.436,0.436,0.436,0.4359,0.4359,0.4374,0.4375,0.4376,0,0,0,0,0,0,0,0,0,0,0,0,0,0.4204,0.4205,0.4298,0.4299,0.43,0.4359,0.4359,0.436,0.436,0.436,0.4359,0.4359,0.4374,0.4375,0.4376,0,0,0,0,0,0,0,0,0,0,0,0,0,0.4249,0.4205,0.4298,0.431,0.4312,0.4359,0.4359,0.436,0.4361,0.436,0.4359,0.4359,0.4374,0.4375,0.4376,0.4398,0,0,0.438,0.4381,0,0,0,0,0,0,0,0,0.4246,0.4252,0.4307,0.431,0.4312,0.4354,0.4332,0.4372,0.4361,0.4339,0.4359,0.4358,0.4366,0.4368,0.4377,0.4398,0.4399,0.438,0.4381,0.4382,0.4382,0,0,0,0,0,0,0,0.4243,0.425,0.4319,0.4309,0.4311,0.432,0.4325,0.4339,0.4352,0.434,0.4341,0.4354,0.4367,0.4376,0.4377,0.4399,0.438,0.4381,0.4382,0.4383,0.4476,0.4477,0,0,0,0,0,0,0.4243,0.4247,0.4317,0.4321,0.4281,0.4323,0.4328,0.4339,0.4353,0.4356,0.4354,0.4354,0.4374,0.4376,0.4378,0.443,0.4382,0.4383,0.4383,0.4474,0.4476,0.4478,0,0,0,0,0,0,0.424,0.4248,0.4314,0.4288,0.4297,0.4325,0.4337,0.434,0.4355,0.4365,0.4366,0.4367,0.4373,0.4376,0.4402,0.4429,0.4383,0.4384,0.4472,0.4475,0.4477,0.4518,0,0,0,0,0,0,0.4237,0.4247,0.4255,0.4288,0.4299,0.4353,0.4338,0.4342,0.4366,0.4365,0.4376,0.4376,0.4373,0.44,0.4403,0.443,0.4385,0.447,0.4473,0.4476,0.4514,0.4522,0.4528,0,0,0,0,0,0.4234,0.4247,0.4255,0.4264,0.4309,0.4354,0.4361,0.4375,0.4367,0.4384,0.4389,0.4376,0.4423,0.4402,0.4406,0.4434,0.4468,0.4472,0.4476,0.4511,0.452,0.4528,0,0,0,0,0,0,0.4208,0.425,0.4259,0.4284,0.4323,0.4356,0.4375,0.4382,0.4401,0.4399,0.4395,0.4397,0.4441,0.4431,0.4408,0.4473,0.4445,0.445,0.4471,0.448,0.4486,0.45,0.4386,0,0,0,0,0,0.4208,0.4229,0.4274,0.4294,0.4317,0.4347,0.4367,0.4381,0.4403,0.4411,0.4418,0.4431,0.446,0.4462,0.4489,0.4512,0.4536,0.4535,0.4541,0.4547,0.4562,0.4628,0.4643,0.4491,0.4491,0.4491,0,0,0.42,0.423,0.4239,0.4291,0.432,0.4356,0.4357,0.4397,0.4421,0.441,0.4441,0.4464,0.4477,0.4515,0.4531,0.4505,0.4604,0.4552,0.4556,0.4569,0.4634,0.4649,0.4662,0.4493,0.4493,0.4493,0,0,0.4201,0.4229,0.4249,0.4287,0.4343,0.4368,0.4382,0.4427,0.4444,0.4482,0.449,0.4527,0.4551,0.4574,0.4584,0.4643,0.4651,0.4649,0.4676,0.474,0.4753,0.4765,0.4816,0.4833,0.4635,0.4635,0.4635,0,0.4192,0.422,0.4263,0.4299,0.4329,0.4374,0.4404,0.4437,0.4481,0.4508,0.4497,0.4577,0.4584,0.464,0.4661,0.466,0.4694,0.4639,0.4749,0.4761,0.4772,0.4822,0.484,0.4637,0.4637,0.4637,0.4636,0,0.4207,0.4236,0.4257,0.4314,0.4356,0.4392,0.4449,0.4492,0.4517,0.455,0.4624,0.4646,0.4692,0.4701,0.4695,0.478,0.4779,0.4763,0.4726,0.479,0.4839,0.4856,0.4641,0.464,0.4639,0.4639,0,0,0.4168,0.4248,0.4253,0.4289,0.4365,0.4406,0.4464,0.4535,0.4587,0.4631,0.4699,0.4746,0.4773,0.4789,0.4797,0.4839,0.4943,0.4832,0.4834,0.4879,0.5088,0.5119,0.514,0.4948,0.4951,0.4953,0.509,0,0.4164,0.4221,0.4262,0.4322,0.4365,0.4431,0.4486,0.4562,0.4624,0.4707,0.4755,0.4826,0.48,0.4836,0.4879,0.4947,0.4991,0.4908,0.5024,0.5027,0.5044,0.5163,0.5158,0.5283,0.5107,0.5109,0.5111,0,0.4159,0.4206,0.4248,0.4347,0.4372,0.4407,0.4523,0.458,0.4706,0.4766,0.4847,0.4898,0.499,0.4953,0.5086,0.5037,0.5071,0.5102,0.5108,0.5137,0.5091,0.5192,0.5321,0.533,0.5138,0.5136,0.5134,0,0.4112,0.4199,0.4228,0.4258,0.4369,0.4403,0.4466,0.4588,0.4651,0.4809,0.4881,0.4996,0.5069,0.5137,0.5216,0.5162,0.5366,0.5293,0.5347,0.5348,0.5369,0.5368,0.552,0.5387,0.5387,0.5386,0.5386,0,0.4089,0.4117,0.4207,0.4225,0.4281,0.4379,0.4448,0.4545,0.4681,0.4775,0.4898,0.4997,0.5122,0.5246,0.528,0.5403,0.5424,0.5397,0.5407,0.5383,0.5381,0.5407,0.5347,0.5391,0.539,0.5389,0.5388,0,0.4019,0.4071,0.4115,0.4219,0.4249,0.4289,0.4407,0.4467,0.4623,0.4755,0.4812,0.503,0.5223,0.5345,0.5499,0.5498,0.5501,0.562,0.5588,0.5592,0.5611,0.5551,0.5277,0.5163,0.5695,0.5697,0.5699,0,0.3984,0.3998,0.408,0.4094,0.4126,0.4199,0.424,0.4405,0.4486,0.4763,0.4825,0.5079,0.5258,0.553,0.5651,0.5787,0.5582,0.5787,0.5674,0.5663,0.5604,0.519,0.5082,0.5715,0.5716,0.5717,0.5719,0,0.3919,0.3934,0.3962,0.3994,0.4023,0.4071,0.4162,0.4221,0.4438,0.4589,0.4824,0.5004,0.5365,0.5583,0.5803,0.5839,0.5599,0.5814,0.5826,0.5672,0.5207,0.5088,0.5557,0.573,0.5729,0.5728,0.5728,0.5727,0.3848,0.3841,0.3866,0.3884,0.3909,0.3932,0.3939,0.4078,0.4209,0.4434,0.4707,0.4975,0.5474,0.5825,0.5823,0.596,0.5672,0.589,0.5831,0.5418,0.5262,0.5758,0.5922,0.5922,0.5922,0.5922,0.5922,0,0.3761,0.3756,0.3765,0.3762,0.3733,0.38,0.3869,0.3881,0.3988,0.4306,0.4536,0.5115,0.5466,0.5792,0.6166,0.6065,0.5666,0.5939,0.5427,0.5335,0.5887,0.5859,0.599,0.599,0.599,0.599,0.599,0.599,0.3713,0.3674,0.3674,0.3589,0.3582,0.3518,0.3529,0.3593,0.3785,0.4109,0.4449,0.4746,0.5443,0.6049,0.6205,0.6105,0.5699,0.5435,0.5312,0.5877,0.5867,0.5857,0.5824,0.5946,0.5945,0.4598,0.4589,0.4582]},{"header":{"parameterUnit":"m.s-1","parameterCategory":2,"la1":30.2991,"la2":30.254,"lo1":-89.0895,"lo2":-89.0444,"dy":0.0017,"dx":0.0017,"nx":28,"ny":28,"refTime":"2024-04-10T03:00:00:Z","depth":"0","parameterNumber":3,"parameterNumberName":"V-component_of_CURRENTS"},"data":[0,0,0,0,0,0,0,0,0,0,0,0,0,0,0,0,0,0,0,0,0,0,0,0,0,0,0,0,0,0,0,0,0,0,0,0,0,0,0,0,0,0,0,0,0,0,0,0,0,0,0,0,0,0,0,0,0,0,0.0417,0.0416,0,0.0295,0.0293,0.0292,0.0208,0.0208,0.0208,0.0207,0.001,0.0005,-0.0,0,0,0,0,0,0,0,0,0,0,0,0,0,0.0507,0.0506,0.0417,0.0416,0.0415,0.0295,0.0293,0.0291,0.0208,0.0208,0.0207,0.0207,0.0011,0.0005,-0.0,0,0,0,0,0,0,0,0,0,0,0,0,0,0.0433,0.0506,0.0418,0.0361,0.0355,0.0295,0.0293,0.0291,0.0208,0.0208,0.0207,0.0207,0.0013,0.0006,-0.0001,-0.0036,0,0,-0.0024,-0.0027,0,0,0,0,0,0,0,0,0.0437,0.0429,0.037,0.0365,0.0358,0.0268,0.0252,0.0179,0.0209,0.0261,0.0207,0.0207,0.0091,0.0077,0.0053,-0.0045,-0.0053,-0.0024,-0.0029,-0.0032,-0.0034,0,0,0,0,0,0,0,0.0442,0.0433,0.0366,0.0369,0.0361,0.0317,0.0306,0.0238,0.0178,0.0257,0.0251,0.0241,0.0087,0.0061,0.0048,-0.0056,-0.0024,-0.0031,-0.0035,-0.0038,-0.0193,-0.0192,0,0,0,0,0,0,0.0467,0.0439,0.037,0.0363,0.04,0.0316,0.0304,0.0296,0.018,0.0163,0.0242,0.0238,0.0073,0.0056,0.004,0.0011,-0.0032,-0.0039,-0.0043,-0.0193,-0.0193,-0.0192,0,0,0,0,0,0,0.0469,0.0462,0.0375,0.04,0.0386,0.0316,0.0307,0.0294,0.0271,0.017,0.0151,0.0234,0.0072,0.0051,-0.0008,0.0002,-0.0042,-0.0049,-0.0193,-0.0193,-0.0193,-0.006,0,0,0,0,0,0,0.0472,0.0464,0.0468,0.0402,0.0386,0.0354,0.0307,0.0292,0.0267,0.026,0.0156,0.0137,0.007,0.0003,-0.0016,-0.0009,-0.0055,-0.0194,-0.0193,-0.0193,-0.0065,-0.0055,-0.0047,0,0,0,0,0,0.0476,0.0489,0.0469,0.0461,0.0393,0.0355,0.0343,0.0289,0.0267,0.0265,0.0197,0.0141,-0.0007,-0.0002,-0.0025,-0.002,-0.0194,-0.0193,-0.0193,-0.0069,-0.0057,-0.0047,0,0,0,0,0,0,0.0529,0.048,0.0457,0.0453,0.0414,0.0343,0.0338,0.03,0.0244,0.024,0.0143,0.0119,0.0072,0.0007,0.0015,-0.0064,-0.011,-0.0113,-0.0008,0.0002,0.0011,0.0053,-0.0061,0,0,0,0,0,0.0545,0.0543,0.0486,0.0485,0.0471,0.0407,0.0386,0.0352,0.0294,0.0269,0.0197,0.0121,0.0056,0.0017,-0.0049,-0.0093,-0.0149,-0.0106,-0.0097,-0.0089,-0.0071,-0.0147,-0.0143,-0.019,-0.019,-0.019,0,0,0.0565,0.0539,0.0537,0.0497,0.0462,0.0457,0.0393,0.0374,0.0367,0.0256,0.0225,0.0151,0.0053,0.0008,-0.002,-0.0045,-0.0103,-0.0088,-0.008,-0.0066,-0.0146,-0.0141,-0.0137,-0.019,-0.019,-0.019,0,0,0.0615,0.0584,0.0603,0.0577,0.054,0.0502,0.0504,0.0441,0.0411,0.0372,0.0293,0.0229,0.0131,0.0063,0.0015,0.0031,-0.0049,0.0009,0.0082,0.0008,0.0012,0.0014,-0.0036,-0.004,0.0009,0.001,0.001,0,0.0642,0.0652,0.0602,0.0614,0.0604,0.0532,0.055,0.051,0.0436,0.0419,0.0383,0.0248,0.0157,0.0101,0.0104,0.0052,0.0009,0.0053,0.0022,0.0023,0.0024,-0.003,-0.0035,0.0016,0.0015,0.0015,0.0014,0,0.0704,0.0709,0.072,0.0711,0.0697,0.0698,0.0645,0.0626,0.0582,0.0536,0.0479,0.036,0.0281,0.0238,0.0173,0.0133,0.0103,0.0049,0.0003,0.0037,-0.0022,-0.0029,0.0025,0.0023,0.0021,0.002,0,0,0.0763,0.0764,0.0766,0.0788,0.0748,0.0751,0.0743,0.0716,0.0727,0.0639,0.0634,0.0506,0.0445,0.0387,0.0291,0.0222,0.0176,0.0151,0.0144,0.0117,0.0037,0.0018,0.0007,0.0122,0.0121,0.012,0.0,0,0.0823,0.0878,0.0852,0.0904,0.093,0.0872,0.0877,0.0845,0.0801,0.0777,0.0654,0.0608,0.05,0.0468,0.0382,0.0232,0.0161,0.0215,-0.0006,-0.0012,-0.002,-0.0001,0.0135,0.004,-0.0008,-0.0009,-0.001,0,0.0889,0.0919,0.0986,0.1015,0.1021,0.1043,0.1051,0.1046,0.0986,0.095,0.088,0.0783,0.0672,0.0573,0.0347,0.0392,0.0233,0.011,0.0101,0.0035,-0.0045,-0.0007,0.0027,-0.0184,-0.0023,-0.0022,-0.0021,0,0.0971,0.1011,0.1076,0.1083,0.1102,0.113,0.1137,0.1107,0.1126,0.1068,0.1079,0.0918,0.0855,0.0642,0.0392,0.0367,0.0152,0.007,-0.0095,-0.0099,-0.0051,-0.0048,-0.0231,-0.009,-0.009,-0.009,-0.0089,0,0.1043,0.1094,0.1129,0.1168,0.1254,0.1234,0.1312,0.1292,0.1287,0.1342,0.1185,0.1193,0.0871,0.0708,0.0455,0.018,0.0191,-0.0068,-0.013,-0.0001,0.0008,-0.0232,-0.0406,-0.0094,-0.0093,-0.0092,-0.0092,0,0.1121,0.1137,0.1222,0.1273,0.1301,0.1367,0.1438,0.1488,0.1477,0.1547,0.154,0.1393,0.1196,0.088,0.0534,0.0279,-0.0118,-0.0104,0.0083,0.0045,-0.0327,-0.0499,-0.072,-0.0882,-0.0315,-0.0316,-0.0317,0,0.1162,0.1219,0.1314,0.1373,0.1405,0.1498,0.1562,0.158,0.165,0.1688,0.1737,0.1579,0.1526,0.1025,0.0568,0.0141,-0.0128,-0.008,-0.013,-0.0317,-0.0556,-0.0608,-0.0733,-0.0012,-0.0011,-0.0009,-0.0008,0,0.1244,0.1281,0.1352,0.1484,0.1575,0.1682,0.1789,0.188,0.1929,0.2013,0.2106,0.2082,0.1653,0.1308,0.0697,0.0361,-0.0204,-0.0072,-0.0311,-0.0369,-0.0391,-0.0583,0.0036,0.0003,0.0002,0.0001,0.0001,0.0,0.1304,0.1371,0.1474,0.16,0.1711,0.1867,0.1988,0.2124,0.229,0.2488,0.2433,0.2558,0.2042,0.1255,0.0683,-0.0101,-0.0167,-0.0292,-0.0493,-0.0532,-0.0664,-0.0016,-0.01,-0.0102,-0.0103,-0.0104,-0.0106,0,0.1375,0.1457,0.158,0.1738,0.1881,0.1926,0.2138,0.2291,0.2535,0.2805,0.2947,0.298,0.2227,0.1436,0.0363,-0.0316,-0.0586,-0.068,-0.0713,-0.0842,-0.0274,-0.0234,-0.0293,-0.0293,-0.0292,-0.0292,-0.0292,-0.0292,0.1414,0.1547,0.1618,0.1864,0.198,0.22,0.2341,0.2587,0.2852,0.3321,0.363,0.3786,0.3471,0.1297,-0.0145,-0.0627,-0.1162,-0.1193,-0.1553,-0.1135,-0.1112,-0.109,-0.1089,-0.1326,-0.1328,-0.1923,-0.193,-0.1935]}],[{"header":{"parameterUnit":"m.s-1","parameterCategory":2,"la1":30.2991,"la2":30.254,"lo1":-89.0895,"lo2":-89.0444,"dy":0.0017,"dx":0.0017,"nx":28,"ny":28,"refTime":"2024-04-10T03:00:00:Z","depth":"2","parameterNumber":2,"parameterNumberName":"U-component_of_CURRENTS"},"data":[0,0,0,0,0,0,0,0,0,0,0,0,0,0,0,0,0,0,0,0,0,0,0,0,0,0,0,0,0,0,0,0,0,0,0,0,0,0,0,0,0,0,0,0,0,0,0,0,0,0,0,0,0,0,0,0,0,0,0.4258,0.4259,0,0.4318,0.4318,0.4319,0.4321,0.4321,0.432,0.432,0.4338,0.4339,0.4339,0,0,0,0,0,0,0,0,0,0,0,0,0,0.4164,0.4165,0.4258,0.4259,0.426,0.4318,0.4318,0.4319,0.4321,0.4321,0.432,0.432,0.4337,0.4338,0.4339,0,0,0,0,0,0,0,0,0,0,0,0,0,0.4209,0.4166,0.4258,0.4271,0.4273,0.4318,0.4318,0.4319,0.4321,0.4321,0.432,0.432,0.4337,0.4338,0.434,0.4359,0,0,0.4344,0.4344,0,0,0,0,0,0,0,0,0.4207,0.4212,0.4268,0.427,0.4272,0.4315,0.4292,0.4332,0.4321,0.4299,0.432,0.4319,0.4329,0.4331,0.4339,0.436,0.4361,0.4344,0.4344,0.4345,0.4345,0,0,0,0,0,0,0,0.4203,0.421,0.4278,0.4269,0.4272,0.428,0.4285,0.43,0.4313,0.4301,0.4302,0.4315,0.4329,0.4338,0.4339,0.4361,0.4344,0.4345,0.4345,0.4346,0.4439,0.4441,0,0,0,0,0,0,0.4203,0.4207,0.4276,0.428,0.4241,0.4283,0.4288,0.4299,0.4314,0.4317,0.4315,0.4315,0.4336,0.4338,0.434,0.4394,0.4345,0.4346,0.4347,0.4437,0.4439,0.4441,0,0,0,0,0,0,0.4201,0.4209,0.4274,0.4248,0.4257,0.4285,0.4297,0.43,0.4317,0.4326,0.4327,0.4329,0.4336,0.4338,0.4365,0.4393,0.4347,0.4348,0.4435,0.4438,0.444,0.4482,0,0,0,0,0,0,0.4198,0.4207,0.4216,0.4248,0.4259,0.4312,0.4298,0.4302,0.4326,0.4326,0.4338,0.4339,0.4335,0.4363,0.4366,0.4394,0.4349,0.4433,0.4436,0.444,0.4478,0.4485,0.4492,0,0,0,0,0,0.4194,0.4208,0.4216,0.4225,0.4269,0.4313,0.432,0.4335,0.4328,0.4344,0.4351,0.4339,0.4386,0.4365,0.4369,0.4397,0.4432,0.4436,0.4439,0.4475,0.4484,0.4491,0,0,0,0,0,0,0.4169,0.4211,0.422,0.4245,0.4283,0.4315,0.4335,0.4343,0.4361,0.4361,0.4357,0.4359,0.4403,0.4394,0.4371,0.4436,0.4409,0.4413,0.4435,0.4443,0.445,0.4463,0.435,0,0,0,0,0,0.4169,0.419,0.4234,0.4255,0.4278,0.4308,0.4327,0.4342,0.4364,0.4372,0.438,0.4394,0.4422,0.4425,0.4452,0.4475,0.4499,0.4498,0.4505,0.451,0.4525,0.459,0.4604,0.4454,0.4454,0.4454,0,0,0.4162,0.4192,0.4201,0.4252,0.4281,0.4316,0.4317,0.4357,0.4381,0.4371,0.4403,0.4426,0.4439,0.4478,0.4494,0.4468,0.4567,0.4515,0.4519,0.4532,0.4596,0.4611,0.4624,0.4457,0.4456,0.4456,0,0,0.4163,0.4191,0.4211,0.4249,0.4304,0.4329,0.4343,0.4388,0.4405,0.4443,0.4451,0.449,0.4514,0.4536,0.4547,0.4606,0.4613,0.4612,0.4639,0.4702,0.4715,0.4727,0.4777,0.4793,0.4598,0.4598,0.4598,0,0.4155,0.4183,0.4225,0.4261,0.429,0.4335,0.4365,0.4398,0.4442,0.4469,0.4459,0.4539,0.4546,0.4602,0.4623,0.4622,0.4656,0.4603,0.4711,0.4723,0.4734,0.4783,0.48,0.4601,0.46,0.46,0.46,0,0.417,0.4199,0.422,0.4276,0.4317,0.4353,0.441,0.4453,0.4479,0.4512,0.4585,0.4607,0.4654,0.4663,0.4658,0.4742,0.4741,0.4725,0.4688,0.4752,0.4799,0.4816,0.4604,0.4603,0.4603,0.4602,0,0,0.4131,0.4211,0.4216,0.4251,0.4326,0.4367,0.4424,0.4494,0.4547,0.4591,0.4659,0.4706,0.4734,0.4751,0.4759,0.48,0.4904,0.4794,0.4796,0.484,0.5047,0.5073,0.5093,0.4908,0.4912,0.4914,0.5048,0,0.4128,0.4184,0.4225,0.4284,0.4326,0.4393,0.4446,0.4521,0.4584,0.4667,0.4714,0.4785,0.4761,0.4797,0.4841,0.4907,0.4951,0.4869,0.4982,0.4986,0.4998,0.5115,0.4676,0.4761,0.5064,0.5067,0.5069,0,0.4123,0.4169,0.4211,0.4309,0.4334,0.4369,0.4483,0.454,0.4665,0.4725,0.4806,0.4857,0.4948,0.4913,0.5044,0.4997,0.503,0.506,0.5066,0.509,0.5045,0.4748,0.4781,0.5097,0.5095,0.5093,0.5091,0,0.4077,0.4162,0.4191,0.4221,0.4331,0.4366,0.4428,0.4548,0.4612,0.4768,0.484,0.4954,0.5027,0.5095,0.5172,0.512,0.5321,0.5249,0.5298,0.5299,0.4949,0.4915,0.5341,0.5341,0.5341,0.534,0.534,0,0.4053,0.4082,0.4171,0.4189,0.4245,0.4342,0.4412,0.4507,0.4643,0.4735,0.4858,0.4956,0.508,0.5202,0.5236,0.5355,0.5377,0.5347,0.5356,0.4953,0.4921,0.5221,0.5205,0.5345,0.5344,0.5343,0.5342,0,0.3985,0.4036,0.4081,0.4184,0.4214,0.4254,0.4372,0.4431,0.4587,0.4717,0.4773,0.4989,0.5179,0.5299,0.5451,0.5448,0.5544,0.5565,0.5099,0.5054,0.5451,0.5435,0.5629,0.5632,0.5634,0.5636,0.5637,0,0.395,0.3964,0.4046,0.4061,0.4093,0.4166,0.4208,0.4371,0.4451,0.4725,0.4785,0.5035,0.5199,0.5465,0.5491,0.5597,0.5655,0.527,0.5099,0.5502,0.5491,0.5472,0.5454,0.4628,0.4621,0.4615,0.4611,0,0.3886,0.3902,0.3929,0.3962,0.3992,0.404,0.413,0.4188,0.4402,0.4539,0.477,0.4935,0.5206,0.5168,0.5344,0.5317,0.5226,0.5168,0.5701,0.4665,0.458,0.4562,0.4572,0.456,0.4565,0.4569,0.4572,0.4574,0.3817,0.381,0.3835,0.3853,0.3879,0.3901,0.3908,0.4003,0.4116,0.4252,0.4561,0.4658,0.4824,0.4877,0.4795,0.4726,0.5081,0.4859,0.4865,0.4879,0.4782,0.4711,0.4695,0.47,0.4705,0.4709,0.4713,0,0.3704,0.3726,0.3735,0.3732,0.3673,0.3771,0.3838,0.3776,0.3811,0.4003,0.4145,0.3954,0.4011,0.4159,0.4,0.4092,0.3892,0.3929,0.3619,0.3679,0.3731,0.3559,0.3155,0.3149,0.3143,0.3138,0,0,0.3649,0.3598,0.3597,0.3498,0.3517,0.3399,0.3408,0.3355,0.342,0.3383,0.3421,0.3741,0.4059,0.3516,0.3519,0.332,0.3427,0.3171,0.4441,0.4137,0.4178,0.4323,0.4142,0,0,0,0,0]},{"header":{"parameterUnit":"m.s-1","parameterCategory":2,"la1":30.2991,"la2":30.254,"lo1":-89.0895,"lo2":-89.0444,"dy":0.0017,"dx":0.0017,"nx":28,"ny":28,"refTime":"2024-04-10T03:00:00:Z","depth":"2","parameterNumber":3,"parameterNumberName":"V-component_of_CURRENTS"},"data":[0,0,0,0,0,0,0,0,0,0,0,0,0,0,0,0,0,0,0,0,0,0,0,0,0,0,0,0,0,0,0,0,0,0,0,0,0,0,0,0,0,0,0,0,0,0,0,0,0,0,0,0,0,0,0,0,0,0,0.0372,0.0371,0,0.025,0.0249,0.0247,0.0165,0.0165,0.0165,0.0164,-0.0032,-0.0036,-0.0041,0,0,0,0,0,0,0,0,0,0,0,0,0,0.0461,0.046,0.0372,0.0371,0.0369,0.025,0.0248,0.0247,0.0165,0.0165,0.0164,0.0164,-0.003,-0.0036,-0.0042,0,0,0,0,0,0,0,0,0,0,0,0,0,0.0387,0.046,0.0372,0.0316,0.031,0.0251,0.0248,0.0246,0.0165,0.0165,0.0164,0.0164,-0.0028,-0.0035,-0.0042,-0.0078,0,0,-0.0065,-0.0068,0,0,0,0,0,0,0,0,0.0391,0.0384,0.0326,0.032,0.0313,0.0225,0.0208,0.0135,0.0166,0.0218,0.0164,0.0164,0.0049,0.0036,0.0011,-0.0087,-0.0095,-0.0065,-0.007,-0.0073,-0.0075,0,0,0,0,0,0,0,0.0397,0.0388,0.0321,0.0325,0.0317,0.0273,0.0262,0.0194,0.0135,0.0213,0.0208,0.0198,0.0045,0.0019,0.0006,-0.0098,-0.0065,-0.0072,-0.0076,-0.0079,-0.0234,-0.0233,0,0,0,0,0,0,0.0421,0.0393,0.0325,0.0318,0.0355,0.0272,0.026,0.0251,0.0137,0.012,0.0199,0.0195,0.0031,0.0015,-0.0001,-0.0031,-0.0073,-0.008,-0.0084,-0.0234,-0.0234,-0.0233,0,0,0,0,0,0,0.0424,0.0416,0.033,0.0354,0.0341,0.0272,0.0262,0.0249,0.0227,0.0127,0.0108,0.0191,0.003,0.0009,-0.005,-0.004,-0.0083,-0.009,-0.0234,-0.0234,-0.0233,-0.0102,0,0,0,0,0,0,0.0427,0.0418,0.0422,0.0356,0.034,0.0309,0.0263,0.0247,0.0223,0.0217,0.0114,0.0095,0.0028,-0.0038,-0.0057,-0.0051,-0.0096,-0.0235,-0.0234,-0.0234,-0.0107,-0.0097,-0.0089,0,0,0,0,0,0.043,0.0443,0.0423,0.0415,0.0348,0.031,0.0298,0.0245,0.0224,0.0221,0.0154,0.0098,-0.0048,-0.0044,-0.0066,-0.0061,-0.0235,-0.0234,-0.0234,-0.0111,-0.0099,-0.0089,0,0,0,0,0,0,0.0483,0.0434,0.0411,0.0408,0.0369,0.0298,0.0293,0.0256,0.0201,0.0197,0.01,0.0077,0.003,-0.0035,-0.0027,-0.0105,-0.0151,-0.0154,-0.005,-0.004,-0.0031,0.001,-0.0102,0,0,0,0,0,0.0499,0.0496,0.044,0.0439,0.0425,0.0362,0.0341,0.0307,0.025,0.0226,0.0154,0.0078,0.0014,-0.0025,-0.0091,-0.0135,-0.019,-0.0148,-0.0139,-0.013,-0.0113,-0.0189,-0.0185,-0.0231,-0.0231,-0.0231,0,0,0.0519,0.0493,0.049,0.045,0.0416,0.0411,0.0348,0.0329,0.0322,0.0212,0.0182,0.0108,0.001,-0.0034,-0.0062,-0.0087,-0.0145,-0.013,-0.0122,-0.0109,-0.0188,-0.0184,-0.0179,-0.0231,-0.0231,-0.0231,0,0,0.0568,0.0538,0.0556,0.0531,0.0494,0.0455,0.0457,0.0395,0.0365,0.0327,0.0249,0.0185,0.0088,0.002,-0.0028,-0.0013,-0.0092,-0.0034,0.0038,-0.0035,-0.0032,-0.0029,-0.008,-0.0084,-0.0033,-0.0033,-0.0033,0,0.0595,0.0605,0.0555,0.0566,0.0557,0.0485,0.0503,0.0463,0.039,0.0373,0.0338,0.0203,0.0114,0.0057,0.0061,0.0008,-0.0034,0.001,-0.0021,-0.002,-0.002,-0.0073,-0.0079,-0.0027,-0.0027,-0.0028,-0.0029,0,0.0655,0.0661,0.0671,0.0662,0.0648,0.0649,0.0596,0.0578,0.0535,0.0488,0.0432,0.0314,0.0236,0.0193,0.0129,0.0089,0.0058,0.0005,-0.004,-0.0007,-0.0066,-0.0074,-0.0018,-0.002,-0.0022,-0.0023,0,0,0.0714,0.0714,0.0716,0.0738,0.0699,0.0701,0.0693,0.0666,0.0676,0.059,0.0584,0.0457,0.0398,0.034,0.0245,0.0176,0.013,0.0106,0.0098,0.0072,-0.0009,-0.0026,-0.0038,0.0076,0.0075,0.0074,-0.0045,0,0.0773,0.0828,0.0802,0.0853,0.0878,0.0821,0.0825,0.0794,0.0749,0.0725,0.0603,0.0558,0.0452,0.042,0.0335,0.0185,0.0115,0.0169,-0.0052,-0.0057,-0.0065,-0.0046,-0.0012,-0.0116,-0.0054,-0.0055,-0.0056,0,0.0838,0.0867,0.0934,0.0962,0.0968,0.0989,0.0998,0.0992,0.0932,0.0896,0.0827,0.0731,0.062,0.0524,0.0298,0.0344,0.0186,0.0064,0.0055,-0.001,-0.0089,-0.0145,-0.0133,-0.007,-0.0069,-0.0068,-0.0067,0,0.092,0.0959,0.1024,0.1031,0.1048,0.1076,0.1084,0.1053,0.1071,0.1013,0.1024,0.0864,0.0802,0.0591,0.0343,0.0318,0.0103,0.0023,-0.0141,-0.0144,-0.0184,-0.0188,-0.0138,-0.0138,-0.0137,-0.0137,-0.0137,0,0.0992,0.1042,0.1077,0.1115,0.1201,0.118,0.1258,0.1237,0.1232,0.1286,0.113,0.1136,0.0817,0.0655,0.0404,0.0132,0.0141,-0.0114,-0.0176,-0.0136,-0.0135,-0.0155,-0.0156,-0.0142,-0.0141,-0.014,-0.0139,0,0.1069,0.1085,0.1169,0.1219,0.1247,0.1313,0.1383,0.1433,0.1421,0.1489,0.1482,0.1334,0.1138,0.0824,0.048,0.0229,-0.0047,-0.0152,-0.0067,-0.0116,-0.0263,-0.0256,-0.0357,-0.0358,-0.036,-0.0361,-0.0362,0,0.111,0.1167,0.126,0.132,0.1352,0.1444,0.1508,0.1524,0.1593,0.1629,0.1676,0.1518,0.1454,0.0956,0.0477,0.0046,-0.0021,-0.0233,-0.0295,-0.0235,-0.0286,-0.0276,-0.0267,-0.0298,-0.0299,-0.0299,-0.0299,0,0.1192,0.1229,0.1299,0.1431,0.1521,0.1627,0.1732,0.1821,0.1869,0.1938,0.2028,0.1993,0.1544,0.1106,0.0488,0.0179,-0.0164,-0.0254,-0.0222,-0.0238,-0.0188,-0.0234,-0.0226,-0.0302,-0.0302,-0.0301,-0.0301,-0.0301,0.1252,0.1319,0.1421,0.1547,0.1657,0.1811,0.193,0.2013,0.2159,0.2254,0.2255,0.2199,0.1718,0.0931,0.0403,-0.0177,-0.0152,-0.0379,-0.0375,-0.0372,-0.0333,-0.0288,-0.0412,-0.0413,-0.0413,-0.0413,-0.0413,0,0.1302,0.1405,0.1526,0.1684,0.1796,0.1871,0.2079,0.2137,0.2296,0.2395,0.2448,0.2024,0.155,0.1009,0.0165,-0.0333,-0.0387,-0.0503,-0.0455,-0.0448,-0.0443,-0.0407,-0.0507,-0.0508,-0.051,-0.0512,0,0,0.1336,0.1457,0.1527,0.1753,0.1889,0.2043,0.2179,0.2264,0.2347,0.2406,0.241,0.2328,0.1742,0.1099,0.0434,-0.003,-0.0138,-0.014,-0.001,0.0132,0.0143,-0.0314,-0.0243,0,0,0,0,0]}],[{"header":{"parameterUnit":"m.s-1","parameterCategory":2,"la1":30.2991,"la2":30.254,"lo1":-89.0895,"lo2":-89.0444,"dy":0.0017,"dx":0.0017,"nx":28,"ny":28,"refTime":"2024-04-10T03:00:00:Z","depth":"4","parameterNumber":2,"parameterNumberName":"U-component_of_CURRENTS"},"data":[0,0,0,0,0,0,0,0,0,0,0,0,0,0,0,0,0,0,0,0,0,0,0,0,0,0,0,0,0,0,0,0,0,0,0,0,0,0,0,0,0,0,0,0,0,0,0,0,0,0,0,0,0,0,0,0,0,0,0.2586,0.2587,0,0.2676,0.2677,0.2677,0.2754,0.2755,0.2756,0.2757,0.2886,0.2888,0.2891,0,0,0,0,0,0,0,0,0,0,0,0,0,0.2455,0.2457,0.2586,0.2587,0.2589,0.2676,0.2677,0.2678,0.2754,0.2755,0.2757,0.2758,0.2885,0.2888,0.2891,0,0,0,0,0,0,0,0,0,0,0,0,0,0.2522,0.2457,0.2586,0.2639,0.2645,0.2675,0.2677,0.2678,0.2754,0.2755,0.2757,0.2758,0.2884,0.2888,0.2891,0.2881,0,0,0.2902,0.2904,0,0,0,0,0,0,0,0,0.2518,0.2527,0.263,0.2635,0.2642,0.2708,0.2678,0.2749,0.2753,0.271,0.2757,0.2759,0.283,0.2839,0.2848,0.2887,0.2892,0.2903,0.2905,0.2906,0.2907,0,0,0,0,0,0,0,0.2514,0.2523,0.2619,0.2631,0.2639,0.265,0.2661,0.2691,0.2758,0.2713,0.272,0.2734,0.2834,0.2844,0.2851,0.2894,0.2903,0.2906,0.2908,0.2909,0.3103,0.3106,0,0,0,0,0,0,0.2508,0.2519,0.2616,0.2622,0.2586,0.2651,0.2664,0.2683,0.2757,0.2771,0.2732,0.2737,0.2837,0.2847,0.2856,0.3002,0.2906,0.291,0.2912,0.31,0.3104,0.3107,0,0,0,0,0,0,0.2504,0.2516,0.2612,0.2574,0.2588,0.2652,0.2673,0.2684,0.2751,0.2772,0.2786,0.2795,0.2838,0.2851,0.294,0.3002,0.2911,0.2915,0.3097,0.3101,0.3106,0.3196,0,0,0,0,0,0,0.25,0.2514,0.2551,0.2574,0.259,0.2668,0.2672,0.2684,0.2755,0.2763,0.2829,0.2839,0.2841,0.2935,0.2944,0.3006,0.2917,0.3093,0.3099,0.3104,0.3189,0.3203,0.3215,0,0,0,0,0,0.2495,0.2527,0.2552,0.2565,0.263,0.267,0.268,0.2728,0.2757,0.2794,0.2848,0.284,0.2977,0.294,0.295,0.3014,0.309,0.3097,0.3104,0.3184,0.32,0.3215,0,0,0,0,0,0,0.2488,0.2539,0.2566,0.2614,0.266,0.2685,0.2732,0.276,0.2829,0.2859,0.2875,0.2889,0.2993,0.2992,0.2951,0.3088,0.3034,0.3043,0.3091,0.3107,0.312,0.3118,0.292,0,0,0,0,0,0.2502,0.2548,0.2589,0.2636,0.2664,0.271,0.2744,0.2779,0.2829,0.2864,0.291,0.2964,0.3017,0.3055,0.3097,0.3167,0.3172,0.3217,0.323,0.3241,0.3248,0.3313,0.3332,0.3129,0.3129,0.3129,0,0,0.2511,0.2549,0.2576,0.264,0.2682,0.2726,0.2736,0.2807,0.2857,0.2865,0.2972,0.3017,0.3048,0.3134,0.3179,0.3147,0.3304,0.3249,0.3258,0.3259,0.3322,0.3342,0.3359,0.3134,0.3133,0.3132,0,0,0.2531,0.2592,0.2631,0.2677,0.2754,0.2779,0.2812,0.2877,0.2931,0.3023,0.305,0.3134,0.3212,0.3246,0.3269,0.3377,0.3373,0.3405,0.3465,0.353,0.3547,0.3561,0.3597,0.3615,0.3406,0.3406,0.3406,0,0.2545,0.2597,0.265,0.2698,0.2745,0.2808,0.2858,0.2912,0.3004,0.3059,0.3077,0.3228,0.326,0.3352,0.3398,0.3406,0.3437,0.3401,0.3545,0.356,0.3574,0.3607,0.3625,0.3411,0.3411,0.341,0.341,0,0.2576,0.2641,0.2673,0.2754,0.2811,0.2872,0.2944,0.3027,0.3103,0.3155,0.3295,0.3347,0.3435,0.3464,0.3468,0.3588,0.3577,0.3556,0.35,0.3599,0.3628,0.3645,0.3419,0.3417,0.3415,0.3414,0,0,0.2538,0.2668,0.2685,0.2742,0.2854,0.2898,0.3003,0.3105,0.3192,0.3295,0.3407,0.3508,0.356,0.359,0.3617,0.3673,0.3799,0.367,0.367,0.3695,0.3942,0.3717,0.3713,0.3815,0.3818,0.3821,0.3924,0,0.255,0.2644,0.271,0.2814,0.287,0.2972,0.306,0.3171,0.3276,0.3402,0.3487,0.3605,0.3599,0.3671,0.373,0.3796,0.3849,0.3772,0.3852,0.3853,0.3632,0.3727,0.3832,0.3937,0.394,0.3943,0.3945,0,0.2544,0.2618,0.2716,0.2862,0.2899,0.2976,0.3146,0.3236,0.3408,0.3503,0.3631,0.3704,0.3834,0.3806,0.3951,0.3913,0.3942,0.3966,0.397,0.3736,0.3659,0.3818,0.3975,0.3973,0.3971,0.3969,0.3967,0,0.2475,0.2619,0.2703,0.2752,0.2918,0.3005,0.3108,0.3278,0.3372,0.3584,0.3678,0.3829,0.3933,0.4003,0.4072,0.4038,0.4207,0.4153,0.3967,0.3951,0.4081,0.4064,0.4241,0.424,0.424,0.424,0.424,0,0.2433,0.2509,0.2691,0.2736,0.2856,0.2995,0.3137,0.3267,0.3453,0.3558,0.3731,0.3823,0.3996,0.4101,0.4129,0.4105,0.4257,0.399,0.3968,0.4117,0.4103,0.4093,0.4074,0.4244,0.4243,0.4242,0.4241,0,0.2329,0.2447,0.2555,0.2753,0.2823,0.2914,0.313,0.322,0.3426,0.357,0.3646,0.387,0.4009,0.4132,0.4267,0.4153,0.4166,0.4116,0.4286,0.427,0.3848,0.3834,0.3897,0.389,0.3884,0.3879,0.3875,0,0.2276,0.2325,0.254,0.2605,0.2702,0.286,0.2954,0.3182,0.3273,0.3552,0.3595,0.3821,0.394,0.395,0.4099,0.414,0.409,0.4054,0.392,0.3844,0.3818,0.3812,0.3806,0.3865,0.3864,0.3862,0.3861,0,0.2173,0.2271,0.2359,0.2495,0.261,0.2717,0.2879,0.2921,0.3167,0.3374,0.347,0.3548,0.3701,0.3806,0.3883,0.3894,0.4052,0.3991,0.4001,0.3875,0.3807,0.3785,0.3786,0.384,0.3843,0.3845,0.3846,0,0.2097,0.2129,0.2256,0.2355,0.2482,0.2536,0.2645,0.2756,0.2872,0.3171,0.3198,0.344,0.3663,0.368,0.3746,0.3757,0.3682,0.3532,0.3565,0.3589,0.3441,0.3307,0.3178,0,0,0,0,0,0.2007,0.2025,0.2106,0.2193,0.2307,0.2391,0.2571,0.2684,0.2912,0.29,0.3042,0.3166,0.327,0.3404,0.3355,0.361,0.3699,0.3534,0.3543,0.3726,0.375,0.3605,0,0,0,0,0,0,0.1944,0.2013,0.2045,0.2033,0.2065,0.2171,0.2281,0.2442,0.2458,0.2703,0.2791,0.2969,0.3138,0.3273,0.3294,0.3332,0.327,0.3691,0.3682,0.3713,0.3735,0.3754,0.3612,0,0,0,0,0]},{"header":{"parameterUnit":"m.s-1","parameterCategory":2,"la1":30.2991,"la2":30.254,"lo1":-89.0895,"lo2":-89.0444,"dy":0.0017,"dx":0.0017,"nx":28,"ny":28,"refTime":"2024-04-10T03:00:00:Z","depth":"4","parameterNumber":3,"parameterNumberName":"V-component_of_CURRENTS"},"data":[0,0,0,0,0,0,0,0,0,0,0,0,0,0,0,0,0,0,0,0,0,0,0,0,0,0,0,0,0,0,0,0,0,0,0,0,0,0,0,0,0,0,0,0,0,0,0,0,0,0,0,0,0,0,0,0,0,0,0.0067,0.0067,0,-0.001,-0.0011,-0.0012,-0.0061,-0.0061,-0.0061,-0.0061,-0.0197,-0.0201,-0.0204,0,0,0,0,0,0,0,0,0,0,0,0,0,0.0113,0.0113,0.0067,0.0067,0.0066,-0.001,-0.0011,-0.0013,-0.0061,-0.0061,-0.0061,-0.0061,-0.0196,-0.02,-0.0205,0,0,0,0,0,0,0,0,0,0,0,0,0,0.0068,0.0112,0.0067,0.0034,0.003,-0.001,-0.0011,-0.0013,-0.0061,-0.0061,-0.0061,-0.0061,-0.0195,-0.02,-0.0205,-0.0235,0,0,-0.0221,-0.0224,0,0,0,0,0,0,0,0,0.0071,0.0067,0.004,0.0036,0.0032,-0.0024,-0.0045,-0.0089,-0.0061,-0.0028,-0.0061,-0.0061,-0.0144,-0.0153,-0.0169,-0.0242,-0.0247,-0.0222,-0.0225,-0.0227,-0.0229,0,0,0,0,0,0,0,0.0074,0.0069,0.0035,0.0039,0.0034,0.0002,-0.0004,-0.0054,-0.0087,-0.0031,-0.0034,-0.004,-0.0146,-0.0164,-0.0173,-0.0249,-0.0222,-0.0226,-0.023,-0.0232,-0.0345,-0.0345,0,0,0,0,0,0,0.0091,0.0073,0.0037,0.0033,0.0054,0.0002,-0.0005,-0.0008,-0.0085,-0.0096,-0.0039,-0.0042,-0.0155,-0.0167,-0.0178,-0.0195,-0.0227,-0.0232,-0.0235,-0.0345,-0.0345,-0.0345,0,0,0,0,0,0,0.0092,0.0089,0.004,0.0052,0.0044,0.0002,-0.0001,-0.0009,-0.0021,-0.009,-0.0103,-0.0042,-0.0155,-0.017,-0.0211,-0.0201,-0.0235,-0.024,-0.0345,-0.0345,-0.0345,-0.0244,0,0,0,0,0,0,0.0094,0.009,0.0095,0.0053,0.0044,0.0026,-0.0001,-0.001,-0.0024,-0.0027,-0.0098,-0.011,-0.0157,-0.0203,-0.0216,-0.0209,-0.0244,-0.0345,-0.0345,-0.0345,-0.0247,-0.024,-0.0234,0,0,0,0,0,0.0096,0.0105,0.0096,0.0092,0.0053,0.0027,0.0019,-0.0013,-0.0024,-0.0026,-0.0069,-0.0108,-0.021,-0.0206,-0.0223,-0.0217,-0.0346,-0.0345,-0.0345,-0.025,-0.0241,-0.0234,0,0,0,0,0,0,0.0123,0.01,0.0089,0.0089,0.0065,0.002,0.0017,-0.0005,-0.0041,-0.0041,-0.0107,-0.0123,-0.0156,-0.0202,-0.0196,-0.025,-0.0284,-0.0287,-0.0207,-0.02,-0.0193,-0.0165,-0.0248,0,0,0,0,0,0.0134,0.0138,0.0105,0.0106,0.01,0.0061,0.0048,0.0029,-0.0009,-0.0024,-0.0071,-0.0123,-0.0168,-0.0194,-0.0242,-0.0272,-0.0317,-0.028,-0.0273,-0.0267,-0.0256,-0.0317,-0.0315,-0.0343,-0.0343,-0.0343,0,0,0.0145,0.0133,0.0134,0.0113,0.0093,0.0094,0.0053,0.0043,0.0042,-0.0034,-0.005,-0.0102,-0.0171,-0.0201,-0.022,-0.0237,-0.0282,-0.0266,-0.026,-0.0253,-0.0317,-0.0314,-0.0311,-0.0343,-0.0343,-0.0343,0,0,0.0173,0.016,0.0175,0.0162,0.0144,0.0122,0.0125,0.0088,0.0072,0.0049,-0.0004,-0.0048,-0.0114,-0.0161,-0.0194,-0.0183,-0.0244,-0.0198,-0.0142,-0.0201,-0.0199,-0.0198,-0.0243,-0.0246,-0.0194,-0.0194,-0.0193,0,0.0186,0.0201,0.0174,0.0184,0.0183,0.0142,0.0159,0.0136,0.0091,0.0082,0.006,-0.0032,-0.0095,-0.0134,-0.0129,-0.0167,-0.0203,-0.0163,-0.019,-0.019,-0.0191,-0.0238,-0.0243,-0.0189,-0.0189,-0.019,-0.019,0,0.0223,0.0237,0.0245,0.025,0.0245,0.025,0.0223,0.0216,0.0194,0.0167,0.0131,0.0049,-0.0003,-0.0034,-0.0079,-0.011,-0.0134,-0.0173,-0.0205,-0.0181,-0.0233,-0.024,-0.0182,-0.0183,-0.0185,-0.0186,0,0,0.0246,0.0268,0.0272,0.0296,0.0282,0.0287,0.0291,0.0282,0.0298,0.0242,0.0245,0.0155,0.0116,0.0076,0.0009,-0.0045,-0.0086,-0.0098,-0.0103,-0.013,-0.0202,-0.0199,-0.0207,-0.0125,-0.0125,-0.0126,-0.0233,0,0.0283,0.0329,0.0325,0.0373,0.0397,0.0374,0.0386,0.0373,0.0353,0.0344,0.0259,0.0234,0.0156,0.0141,0.0073,-0.0042,-0.0101,-0.0052,-0.0231,-0.0236,-0.0227,-0.0214,-0.0129,-0.0239,-0.024,-0.0242,-0.0243,0,0.0318,0.0348,0.0406,0.0451,0.046,0.0488,0.0514,0.0521,0.0492,0.0474,0.0431,0.0365,0.0285,0.0214,0.0036,0.0075,-0.0051,-0.0148,-0.0155,-0.0191,-0.0247,-0.0273,-0.0257,-0.0256,-0.0255,-0.0254,-0.0253,0,0.0354,0.0405,0.0461,0.0473,0.0514,0.0548,0.0571,0.0567,0.0592,0.0567,0.0581,0.0466,0.0424,0.0257,0.0062,0.0049,-0.0136,-0.0188,-0.0307,-0.0308,-0.0324,-0.0325,-0.0322,-0.0322,-0.0322,-0.0322,-0.0321,0,0.0389,0.0436,0.0494,0.0528,0.061,0.0616,0.0694,0.0699,0.0715,0.076,0.0662,0.0663,0.0434,0.0301,0.0104,-0.0107,-0.011,-0.0289,-0.0334,-0.0279,-0.0273,-0.0329,-0.0328,-0.0326,-0.0325,-0.0324,-0.0323,0,0.0416,0.0449,0.0525,0.0597,0.0635,0.0696,0.0791,0.084,0.0853,0.0909,0.0911,0.0808,0.0643,0.0407,0.0133,-0.0035,-0.0252,-0.0335,-0.0233,-0.0273,-0.0398,-0.0391,-0.0474,-0.0475,-0.0476,-0.0476,-0.0477,0,0.043,0.0474,0.0585,0.0644,0.0689,0.0786,0.0854,0.0904,0.0962,0.1,0.1028,0.0907,0.0804,0.0453,0.0174,-0.019,-0.026,-0.0376,-0.0413,-0.0376,-0.0413,-0.0405,-0.0397,-0.0478,-0.0478,-0.0478,-0.0478,0,0.0458,0.0503,0.0571,0.0697,0.0793,0.0896,0.1003,0.1058,0.112,0.1138,0.1144,0.0971,0.0782,0.048,0.0201,-0.0072,-0.0299,-0.0384,-0.0386,-0.0422,-0.0382,-0.0416,-0.0407,-0.048,-0.048,-0.048,-0.048,0,0.0481,0.053,0.0627,0.0739,0.0864,0.0978,0.103,0.1114,0.1179,0.1225,0.1223,0.1033,0.0921,0.054,0.0283,0.0022,-0.0069,-0.0177,-0.0192,-0.0193,-0.0092,0.0001,-0.0009,0,0,0,0,0,0.0492,0.0553,0.0658,0.0786,0.0911,0.0987,0.1118,0.1158,0.1229,0.1254,0.1249,0.1082,0.0733,0.0583,0.0323,0.0213,-0.0153,-0.0106,-0.0294,-0.0493,-0.049,-0.0421,0,0,0,0,0,0,0.0499,0.0595,0.0654,0.0812,0.09,0.1043,0.1129,0.1174,0.1191,0.1228,0.1056,0.0997,0.0654,0.0888,0.0315,0.0236,0.0074,-0.0262,-0.0268,-0.0494,-0.0492,-0.049,-0.0418,0,0,0,0,0]}]]